Weather in Tridtsaty

Russia / Samara Oblast     52°44′51″N   50°26′52″E
temp.,
°C
wind,
m/s
gust,
m/s
humid.,
%
clouds,
%
prec.,
mm/h
press.,
hPa
HPBL,
m
2 july, sat
sat201:00+12ne4993100 0.3 1009184
04:00+12e41092100 0.8 1009232
07:00+14e41086100 0.3 1010368
10:00+17ene587274 0.4 1010673
13:00+21ene7105687 0.0 10091479
16:00+23ene81155100 0.0 10081840
19:00+19ese71272100 0.8 1009485
22:00+15e3692100 2.2 1010164
3 july, sun
sun301:00+14ne4794100 1.0 1009185
04:00+14nne4698100 1.6 1009202
07:00+14nne61196100 2.5 1008369
10:00+16ne51190100 2.5 1009493
13:00+18nne6977100 0.1 1009511
16:00+22nne686251 0.3 10081281
19:00+20nne711754 0.9 1008643
22:00+15n48905 1.1 1009135
4 july, mon
mon401:00+14n4109198 0.0 1008192
04:00+14n51090100 0.0 1008264
07:00+15n61190100 0.0 1009456
10:00+18nne710652 0.0 10101175
13:00+19n696481 0.1 10101661
16:00+21nne810585 0.4 10101670
19:00+19nne6107292 0.4 10111009
22:00+15n5128594 0.4 1012401
5 july, tue
tue501:00+13nne5128955 0.0 1013257
04:00+11n4109187 0.0 1015193
07:00+14nne4978100 0.0 1016288
10:00+19nne576082 0.0 1016993
13:00+21nne675057 0.0 10161740
16:00+22nne58485 0.0 10161898
19:00+20nne366220 0.0 1017280
22:00+16nne2274100 0.0 101714
6 july, wed
wed601:00+14e1182100 0.0 101811
04:00+13n0083100 0.0 101911
07:00+17nw11725 0.0 1019136
10:00+22wnw22586 0.0 1019694
13:00+24wnw33495 0.0 10181573
16:00+25wnw344934 0.0 10181788
19:00+24w356341 0.0 1017151
22:00+19wnw22694 0.0 101817